Flag for Germany Weather past 2 weeks in Voerde (Niederrhein), North Rhine-Westphalia, Germany

Now
76 °F

Passing clouds.


Feels Like: 78 °F
Forecast: 55 / 79 °F
Wind: 5 mph from Southeast

Location: Duesseldorf

Current Time: Aug 4, 2015 at 4:05:10 AM

Latest Report: Aug 4, 2015 at 3:00 AM


Visibility: 31 mi

Pressure: 29.85 "Hg

Humidity: 46%

Dew point: 53 °F

Location of Voerde (Niederrhein)Location

Historic Weather in Voerde (Niederrhein) — Graph

°F

Voerde (Niederrhein) temperature yesterday

Maximum temperature yesterday: 93 °F (at 4:00 PM)
Minimum temperature yesterday: 59 °F (at 3:00 AM)
Average temperature yesterday: 79 °F

Past Weeks' High & Low Weather Summary

 TemperatureHumidityPressure
High93 °F (Aug 3, 4:00 PM)98% (Jul 31, 4:00 AM)30.16 "Hg (Jul 31, 4:00 AM)
Low46 °F (Jul 31, 4:00 AM)24% (Aug 3, 4:00 PM)29.50 "Hg (Jul 25, 7:00 AM)
Average66 °F65%29.90 "Hg
* Reported Jul 20 3:00 AM — Aug 4 3:00 AM, Voerde (Niederrhein), Weather by CustomWeather, © 2015

Note: Actual official high and low records may vary slightly from our data, if they occured in-between our weather recording intervals... More about our weather records

Advertising

Voerde (Niederrhein) weather history for previous 24 hours

 ConditionsComfort  
Time TempWeatherWind HumidityBarometerVisibility
3:00 AM
Tue, Aug 4
76 °FPassing clouds.5 mph46%29.85 "Hg31 mi
2:00 AM75 °FPassing clouds.5 mph48%29.87 "Hg31 mi
1:00 AM69 °FPassing clouds.1 mph69%29.89 "Hg31 mi
10:00 PM
Mon, Aug 3
80 °FPassing clouds.1 mph43%29.90 "Hg31 mi
9:00 PM85 °FOvercast.2 mph34%29.89 "Hg31 mi
8:00 PM89 °FPartly sunny.3 mph28%29.88 "Hg28 mi
7:00 PM90 °FPartly sunny.5 mph26%29.89 "Hg28 mi
6:00 PM92 °FScattered clouds.6 mph25%29.90 "Hg25 mi
5:00 PM92 °FScattered clouds.5 mph24%29.91 "Hg25 mi
4:00 PM93 °FScattered clouds.6 mph24%29.92 "Hg25 mi
3:00 PM92 °FPartly sunny.7 mph27%29.93 "Hg25 mi
2:00 PM89 °FScattered clouds.1 mph28%29.94 "Hg25 mi
1:00 PM87 °FScattered clouds.5 mph32%29.96 "Hg31 mi
12:00 PM84 °FPassing clouds.6 mph35%29.97 "Hg31 mi
11:00 AM82 °FPassing clouds.6 mph37%29.97 "Hg31 mi
10:00 AM78 °FPassing clouds.6 mph39%29.98 "Hg31 mi
9:00 AM73 °FPassing clouds.8 mph46%29.98 "Hg31 mi
8:00 AM70 °FPassing clouds.6 mph48%29.98 "Hg31 mi
7:00 AM68 °FPassing clouds.6 mph52%29.98 "Hg31 mi
6:00 AM67 °FScattered clouds.5 mph56%29.98 "Hg25 mi
4:00 AM64 °FPassing clouds.3 mph68%30.00 "Hg25 mi
Weather by CustomWeather, © 2015

See weather overviewHow to use our weather pages